Date Time,Air Temp,Sky Temp,Clarity,Light Level,Rain Sensor,Readings
2010-03-22 00:00:10,15.1,3.0,12.1,0.0,2.3,111
2010-03-22 00:05:10,15.3,3.0,12.3,0.0,2.3,111
2010-03-22 00:10:10,15.0,2.9,12.1,0.0,2.3,112
2010-03-22 00:15:10,15.0,1.7,13.3,0.0,2.3,110
2010-03-22 00:20:10,15.0,0.3,14.6,0.0,2.2,112
2010-03-22 00:25:10,14.9,1.0,14.0,0.0,2.2,111
2010-03-22 00:30:10,14.9,-0.9,15.8,0.0,2.0,112
2010-03-22 00:35:10,14.9,0.8,14.2,0.0,2.1,111
2010-03-22 00:40:10,14.9,2.2,12.7,0.0,2.2,111
2010-03-22 00:45:10,14.9,3.6,11.3,0.0,2.2,112
2010-03-22 00:50:10,14.9,3.2,11.7,0.0,2.2,111
2010-03-22 00:55:10,15.0,3.3,11.7,0.0,2.2,111
2010-03-22 01:00:10,15.0,3.7,11.3,0.0,2.2,112
2010-03-22 01:05:10,15.0,2.9,12.1,0.0,2.2,111
2010-03-22 01:10:10,15.0,2.6,12.3,0.0,2.3,111
2010-03-22 01:15:10,14.9,2.7,12.2,0.0,2.2,112
2010-03-22 01:20:10,14.9,2.0,12.9,0.0,2.2,111
2010-03-22 01:25:10,14.9,1.2,13.7,0.0,2.2,111
2010-03-22 01:30:10,14.9,-0.5,15.4,0.0,2.2,111
2010-03-22 01:35:10,14.8,-1.8,16.6,0.0,1.9,112
2010-03-22 01:40:10,14.7,-1.2,15.8,0.0,1.8,111
2010-03-22 01:45:10,15.9,-5.0,20.9,0.0,2.1,112
2010-03-22 01:50:10,18.3,-6.2,24.5,0.0,2.4,111
2010-03-22 01:55:10,19.0,-4.3,23.3,0.0,2.3,112
2010-03-22 02:00:10,19.2,-7.5,26.7,0.0,2.3,111
2010-03-22 02:05:10,19.3,-6.0,25.3,0.0,2.3,112
2010-03-22 02:10:10,19.3,-3.8,23.1,0.0,2.2,112
2010-03-22 02:15:10,19.3,-7.2,26.5,0.0,2.3,111
2010-03-22 02:20:10,19.4,-9.6,29.0,0.0,2.3,112
2010-03-22 02:25:10,19.3,-8.9,28.2,0.0,2.3,112
2010-03-22 02:30:10,19.3,-12.0,31.3,0.0,2.3,111
2010-03-22 02:35:10,19.3,-12.7,32.1,0.0,2.3,112
2010-03-22 02:40:10,19.0,-12.4,31.3,0.0,2.3,111
2010-03-22 02:45:10,19.3,-8.8,28.1,0.0,2.3,112
2010-03-22 02:50:10,19.4,-8.6,27.9,0.0,2.3,112
2010-03-22 02:55:10,19.4,-12.3,31.7,0.0,2.3,111
2010-03-22 03:00:10,19.4,-12.9,32.3,0.0,2.3,112
2010-03-22 03:05:10,19.3,-12.8,32.1,0.0,2.3,112
2010-03-22 03:10:10,19.2,-12.8,31.9,0.0,2.3,111
2010-03-22 03:15:10,19.2,-11.9,31.1,0.0,2.3,111
2010-03-22 03:20:10,19.1,-11.5,30.7,0.0,2.3,112
2010-03-22 03:25:10,19.1,-11.7,30.8,0.0,2.3,111
2010-03-22 03:30:10,19.1,-11.8,30.9,0.0,2.3,111
2010-03-22 03:35:10,19.1,-11.8,31.0,0.0,2.3,111
2010-03-22 03:40:10,19.1,-11.8,30.9,0.0,2.2,111
2010-03-22 03:45:10,19.1,-11.6,30.7,0.0,2.3,111
2010-03-22 03:50:10,19.2,-10.6,29.8,0.0,2.3,112
2010-03-22 03:55:10,19.2,-9.0,28.3,0.0,2.3,111
2010-03-22 04:00:10,19.3,-5.2,24.6,0.0,2.3,112
2010-03-22 04:05:10,18.4,-0.1,18.5,0.0,2.3,111
2010-03-22 04:10:10,15.9,1.2,14.7,0.0,2.4,112
2010-03-22 04:15:10,15.1,1.9,13.2,0.0,2.3,111
2010-03-22 04:20:10,14.9,2.0,12.8,0.0,2.1,111
2010-03-22 04:25:10,14.8,1.3,13.5,0.0,2.0,111
2010-03-22 04:30:10,14.8,-0.3,15.0,0.0,2.0,112
2010-03-22 04:35:10,15.6,-6.0,21.5,0.0,2.2,112
2010-03-22 04:40:10,18.2,-9.5,27.7,0.0,2.4,111
2010-03-22 04:45:10,18.9,-7.4,26.3,0.0,2.3,112
2010-03-22 04:50:10,19.0,-11.9,30.9,0.0,2.3,111
2010-03-22 04:55:10,19.0,-16.0,35.0,0.0,2.3,112
2010-03-22 05:00:10,19.2,-14.6,33.7,0.0,2.3,111
2010-03-22 05:05:10,19.2,-4.4,23.6,0.1,2.3,112
2010-03-22 05:10:10,19.1,-16.6,35.8,0.2,2.3,111
2010-03-22 05:15:10,19.2,-18.7,37.9,0.4,2.3,112
2010-03-22 05:20:10,19.1,-18.3,37.4,0.8,2.3,111
2010-03-22 05:25:10,18.9,-18.4,37.2,1.6,2.3,112
2010-03-22 05:30:10,18.5,-17.6,36.1,3.4,2.3,111
2010-03-22 05:35:10,18.4,-17.5,35.8,6.8,2.3,112
2010-03-22 05:40:10,18.4,-17.3,35.6,11.9,2.3,111
2010-03-22 05:45:10,18.3,-12.5,30.8,17.8,2.3,112
2010-03-22 05:50:10,18.4,-11.0,29.4,23.0,2.3,111
2010-03-22 05:55:10,18.5,-10.6,29.0,26.7,2.3,112
2010-03-22 06:00:10,18.5,-9.6,28.1,28.8,2.3,112
2010-03-22 06:05:10,18.6,-10.8,29.4,29.8,2.3,112
2010-03-22 06:10:10,18.7,-11.9,30.6,30.6,2.3,111
2010-03-22 06:15:10,18.7,-14.1,32.7,31.2,2.3,112
2010-03-22 06:20:10,18.4,-13.4,31.8,31.5,2.3,111
2010-03-22 06:25:10,18.7,-13.6,32.3,31.7,2.3,112
2010-03-22 06:30:10,18.6,-14.8,33.3,31.9,2.3,111
2010-03-22 06:35:10,18.6,-16.7,35.3,31.9,2.3,112
2010-03-22 06:40:10,18.6,-18.3,36.9,32.0,2.3,111
2010-03-22 06:45:10,18.7,-18.1,36.8,32.0,2.3,112
2010-03-22 06:50:10,18.7,-17.9,36.5,32.1,2.3,111
2010-03-22 06:55:10,18.7,-17.3,35.9,32.2,2.3,112
2010-03-22 07:00:10,18.7,-16.6,35.3,32.2,2.3,111
2010-03-22 07:05:10,18.8,-14.2,33.0,32.2,2.3,112
2010-03-22 07:10:10,18.5,-16.0,34.5,32.2,2.3,111
2010-03-22 07:15:10,18.9,-18.3,37.2,32.3,2.3,112
2010-03-22 07:20:10,18.9,-18.8,37.7,32.3,2.3,112
2010-03-22 07:25:10,19.0,-19.2,38.1,32.3,2.3,111
2010-03-22 07:30:10,19.0,-18.4,37.4,32.3,2.3,112
2010-03-22 07:35:10,19.3,-13.2,32.4,32.4,2.3,111
2010-03-22 07:40:10,19.6,-9.7,29.3,32.4,2.3,112
2010-03-22 07:45:10,19.9,-8.5,28.4,32.5,2.3,112
2010-03-22 07:50:10,20.3,-10.6,30.9,32.5,2.3,112
2010-03-22 07:55:10,20.8,-13.2,34.0,32.5,2.2,111
2010-03-22 08:00:10,21.0,-15.0,36.0,32.5,2.3,112
2010-03-22 08:05:10,20.8,-16.2,37.0,32.4,2.3,111
2010-03-22 08:10:10,20.8,-17.6,38.4,32.4,2.3,112
2010-03-22 08:15:10,20.6,-18.9,39.5,32.4,2.3,111
2010-03-22 08:20:10,20.7,-18.6,39.3,32.4,2.3,112
2010-03-22 08:25:10,20.6,-15.5,36.1,32.4,2.3,111
2010-03-22 08:30:10,20.6,-12.7,33.3,32.5,2.3,112
2010-03-22 08:35:10,20.7,-8.6,29.3,32.5,2.3,111
2010-03-22 08:40:10,20.6,-9.0,29.7,32.5,2.3,111
2010-03-22 08:45:10,21.3,-3.5,24.8,32.5,2.3,112
2010-03-22 08:50:10,21.6,-1.6,23.2,32.5,2.3,112
2010-03-22 08:55:10,21.8,-0.5,22.3,32.5,2.3,111
2010-03-22 09:00:10,22.0,-0.0,22.0,32.5,2.3,112
2010-03-22 09:05:10,22.1,0.3,21.7,32.5,2.3,112
2010-03-22 09:10:10,22.1,0.6,21.6,32.5,2.2,111
2010-03-22 09:15:10,22.2,0.7,21.5,32.5,2.2,111
2010-03-22 09:20:10,22.1,0.4,21.8,32.5,2.1,112
2010-03-22 09:25:10,22.1,0.6,21.5,32.5,2.1,111
2010-03-22 09:30:10,21.7,0.2,21.5,32.5,2.1,111
2010-03-22 09:35:10,22.0,0.1,21.9,32.5,2.1,112
2010-03-22 09:40:10,22.0,0.3,21.7,32.5,2.1,112
2010-03-22 09:45:10,22.1,0.4,21.7,32.5,2.1,111
2010-03-22 09:50:10,22.1,0.3,21.8,32.5,2.1,112
2010-03-22 09:55:10,22.2,0.7,21.4,32.5,2.2,111
2010-03-22 10:00:10,22.3,0.4,21.9,32.5,2.3,111
2010-03-22 10:05:10,22.3,0.4,21.9,32.5,2.3,112
2010-03-22 10:10:10,22.3,0.1,22.1,32.5,2.3,111
2010-03-22 10:15:10,22.3,0.7,21.5,32.5,2.3,111
2010-03-22 10:20:10,22.3,0.5,21.8,32.5,2.3,112
2010-03-22 10:25:10,22.3,0.5,21.8,32.5,2.3,111
2010-03-22 10:30:10,22.3,0.0,22.2,32.5,2.3,111
2010-03-22 10:35:10,22.3,0.6,21.7,32.5,2.3,111
2010-03-22 10:40:10,22.3,0.4,22.0,32.5,2.3,111
2010-03-22 10:45:10,22.3,-0.0,22.3,32.5,2.3,112
2010-03-22 10:50:10,22.2,-0.0,22.2,32.5,2.3,112
2010-03-22 10:55:10,22.2,0.1,22.1,32.6,2.3,111
2010-03-22 11:00:10,22.3,0.3,22.1,32.5,2.3,112
2010-03-22 11:05:10,22.4,-0.4,22.8,32.6,2.3,111
2010-03-22 11:10:10,22.5,-2.0,24.5,32.6,2.3,112
2010-03-22 11:15:10,23.0,-6.9,29.9,32.6,2.3,112
2010-03-22 11:20:10,23.5,-15.9,39.4,32.6,2.3,111
2010-03-22 11:25:10,24.4,-16.3,40.7,32.6,2.3,112
2010-03-22 11:30:10,25.0,-11.7,36.7,32.6,2.3,112
2010-03-22 11:35:10,25.1,-8.2,33.3,32.6,2.3,112
2010-03-22 11:40:10,25.1,-7.8,32.9,32.6,2.3,111
2010-03-22 11:45:10,24.9,-2.3,27.2,32.6,2.3,112
2010-03-22 11:50:10,24.1,0.4,23.7,32.6,2.3,111
2010-03-22 11:55:10,23.5,0.5,23.0,32.6,2.3,111
2010-03-22 12:00:10,23.4,1.4,22.0,32.6,2.3,112
2010-03-22 12:05:10,23.4,0.9,22.4,32.6,2.3,111
2010-03-22 12:10:10,23.3,1.3,22.0,32.6,2.3,111
2010-03-22 12:15:10,23.3,1.5,21.8,32.6,2.3,111
2010-03-22 12:20:10,23.3,1.3,22.1,32.6,2.3,112
2010-03-22 12:25:10,23.4,1.2,22.1,32.6,2.3,111
2010-03-22 12:30:10,23.6,1.6,22.1,32.6,2.3,111
2010-03-22 12:35:10,23.8,1.2,22.6,32.6,2.3,111
2010-03-22 12:40:10,23.9,1.0,22.8,32.6,2.3,112
2010-03-22 12:45:10,24.0,1.3,22.6,32.6,2.3,111
2010-03-22 12:50:10,24.0,-0.0,24.0,32.6,2.3,112
2010-03-22 12:55:10,24.0,-1.3,25.3,32.6,2.3,112
2010-03-22 13:00:10,24.0,-0.8,24.8,32.6,2.3,111
2010-03-22 13:05:10,23.7,-1.2,24.9,32.6,2.3,112
2010-03-22 13:10:10,23.4,-0.2,23.6,32.5,2.3,112
2010-03-22 13:15:10,23.1,0.0,23.1,32.5,2.3,111
2010-03-22 13:20:10,23.0,0.4,22.7,32.5,2.3,111
2010-03-22 13:25:10,23.2,-0.2,23.3,32.5,2.3,111
2010-03-22 13:30:10,23.0,0.1,22.9,32.5,2.3,112
2010-03-22 13:35:10,22.9,0.6,22.3,32.5,2.4,111
2010-03-22 13:40:10,22.9,1.1,21.8,32.5,2.3,111
2010-03-22 13:45:10,22.9,0.5,22.4,32.5,2.3,111
2010-03-22 13:50:10,22.7,1.4,21.3,32.5,2.3,112
2010-03-22 13:55:10,22.7,1.1,21.6,32.5,2.3,111
2010-03-22 14:00:10,22.8,1.2,21.6,32.5,2.3,110
2010-03-22 14:05:10,22.8,0.8,21.9,32.5,2.3,112
2010-03-22 14:10:10,22.9,0.9,22.0,32.6,2.3,111
2010-03-22 14:15:10,23.1,0.8,22.3,32.6,2.3,111
2010-03-22 14:20:10,23.5,-0.0,23.5,32.6,2.3,111
2010-03-22 14:25:10,23.6,-0.0,23.6,32.6,2.3,111
2010-03-22 14:30:10,23.4,0.8,22.6,32.6,2.3,112
2010-03-22 14:35:10,22.8,1.1,21.8,32.5,2.3,111
2010-03-22 14:40:10,23.3,-0.8,24.0,32.5,2.3,111
2010-03-22 14:45:10,23.0,1.1,21.9,32.5,2.3,111
2010-03-22 14:50:10,22.7,1.7,21.0,32.5,2.3,111
2010-03-22 14:55:10,22.6,1.4,21.2,32.4,2.5,112
2010-03-22 15:00:10,21.6,1.0,20.5,32.3,3.3,111
2010-03-22 15:05:10,20.7,0.6,20.0,32.4,4.6,111
2010-03-22 15:10:10,18.2,1.7,16.5,32.3,3.0,112
2010-03-22 15:15:10,17.1,1.2,15.9,32.3,4.0,111
2010-03-22 15:20:10,16.7,1.7,15.1,32.4,6.9,111
2010-03-22 15:25:10,16.5,2.0,14.6,32.4,12.4,111
2010-03-22 15:30:10,16.3,1.3,15.0,32.4,6.0,111
2010-03-22 15:35:10,16.1,1.3,14.8,32.4,8.9,111
2010-03-22 15:40:10,15.9,2.4,13.5,32.4,16.3,111
2010-03-22 15:45:10,15.8,6.2,9.6,32.4,21.7,111
2010-03-22 15:50:10,15.9,8.1,7.8,32.5,13.0,112
2010-03-22 15:55:10,15.9,7.8,8.1,32.4,8.3,112
2010-03-22 16:00:10,15.9,7.8,8.0,32.4,7.9,111
2010-03-22 16:05:10,15.9,7.8,8.1,32.4,7.9,112
2010-03-22 16:10:10,15.8,6.8,9.0,32.4,6.2,111
2010-03-22 16:15:10,15.7,7.5,8.2,32.3,5.6,112
2010-03-22 16:20:10,15.6,8.3,7.3,32.3,5.3,112
2010-03-22 16:25:10,15.6,8.5,7.0,32.1,5.4,111
2010-03-22 16:30:10,15.6,8.1,7.5,32.2,6.3,112
2010-03-22 16:35:10,15.6,8.0,7.5,32.1,7.6,111
2010-03-22 16:40:10,15.6,8.7,6.9,32.1,11.4,112
2010-03-22 16:45:10,15.7,7.7,8.0,32.0,8.6,111
2010-03-22 16:50:10,15.6,7.5,8.1,31.9,9.8,111
2010-03-22 16:55:10,15.6,8.4,7.1,31.9,17.8,112
2010-03-22 17:00:10,15.7,8.2,7.5,31.9,14.8,111
2010-03-22 17:05:10,15.8,8.8,6.9,32.0,23.1,111
2010-03-22 17:10:10,15.8,8.5,7.3,32.0,12.9,112
2010-03-22 17:15:10,15.7,8.8,6.9,31.9,10.2,111
2010-03-22 17:20:10,15.7,8.0,7.7,31.9,11.9,112
2010-03-22 17:25:10,15.8,8.6,7.1,31.8,18.3,111
2010-03-22 17:30:10,15.8,8.3,7.5,31.5,30.8,112
2010-03-22 17:35:10,15.6,9.1,6.5,31.5,28.7,111
2010-03-22 17:40:10,15.7,8.0,7.7,31.4,24.4,112
2010-03-22 17:45:10,15.7,7.4,8.3,31.2,27.2,111
2010-03-22 17:50:10,15.7,7.7,8.0,30.8,21.3,111
2010-03-22 17:55:10,15.9,7.2,8.6,30.5,14.9,111
2010-03-22 18:00:10,15.9,7.4,8.5,29.9,15.1,111
2010-03-22 18:05:10,15.8,6.7,9.1,29.3,25.5,112
2010-03-22 18:10:10,15.8,6.8,9.0,28.7,8.2,111
2010-03-22 18:15:10,15.9,5.0,10.9,27.7,8.7,112
2010-03-22 18:20:10,15.9,3.7,12.1,25.9,7.9,111
2010-03-22 18:25:10,15.8,3.0,12.9,24.2,7.2,111
2010-03-22 18:30:10,15.8,1.9,13.9,21.4,5.5,111
2010-03-22 18:35:10,16.3,1.8,14.4,16.9,2.9,111
2010-03-22 18:40:10,15.6,2.1,13.6,11.0,2.8,111
2010-03-22 18:45:10,15.6,2.5,13.0,6.6,2.7,111
2010-03-22 18:50:10,15.6,2.6,12.9,3.8,2.7,111
2010-03-22 18:55:10,15.5,3.3,12.3,2.2,4.3,112
2010-03-22 19:00:10,15.6,2.9,12.7,1.4,5.7,111
2010-03-22 19:05:10,15.5,3.1,12.5,0.6,3.5,111
2010-03-22 19:10:10,15.5,3.4,12.1,0.2,2.6,112
2010-03-22 19:15:10,15.4,3.4,12.0,0.0,2.6,111
2010-03-22 19:20:10,15.4,3.7,11.7,0.0,2.5,112
2010-03-22 19:25:10,15.4,3.9,11.5,0.0,2.3,111
2010-03-22 19:30:10,15.5,3.8,11.7,0.0,2.3,111
2010-03-22 19:35:10,15.5,3.5,12.0,0.0,2.3,112
2010-03-22 19:40:10,15.5,3.0,12.5,0.1,2.3,111
2010-03-22 19:45:10,15.5,3.5,12.0,0.0,2.3,112
2010-03-22 19:50:10,15.6,3.3,12.3,0.0,2.3,111
2010-03-22 19:55:10,15.6,1.8,13.9,0.1,2.3,111
2010-03-22 20:00:10,15.8,-1.9,17.7,0.1,2.3,112
2010-03-22 20:05:10,15.7,0.6,15.1,0.1,2.3,112
2010-03-22 20:10:10,16.4,-6.4,22.7,0.1,2.3,112
2010-03-22 20:15:10,18.7,-3.2,21.9,0.1,2.3,111
2010-03-22 20:20:10,17.8,-4.7,22.5,0.1,2.3,112
2010-03-22 20:25:10,19.5,-13.7,33.2,0.1,2.3,111
2010-03-22 20:30:10,19.8,-15.6,35.4,0.1,2.3,112
2010-03-22 20:35:10,19.8,-10.1,29.9,0.1,2.3,111
2010-03-22 20:40:10,19.9,-10.2,30.1,0.1,2.3,112
2010-03-22 20:45:10,19.9,-11.1,31.0,0.1,2.3,111
2010-03-22 20:50:10,19.9,-11.5,31.4,0.1,2.3,112
2010-03-22 20:55:10,19.9,-5.0,24.9,0.1,2.3,112
2010-03-22 21:00:10,20.0,-6.0,25.9,0.1,2.3,111
2010-03-22 21:05:10,19.9,-7.6,27.5,0.1,2.3,112
2010-03-22 21:10:10,19.9,-2.3,22.2,0.1,2.3,112
2010-03-22 21:15:10,17.5,1.8,15.7,0.0,2.3,111
2010-03-22 21:20:10,15.9,2.5,13.5,0.0,2.3,111
2010-03-22 21:25:10,15.5,1.7,13.8,0.0,2.5,112
2010-03-22 21:30:10,15.2,-0.6,15.9,0.1,2.6,111
2010-03-22 21:35:10,15.1,0.5,14.5,0.0,2.3,112
2010-03-22 21:40:10,14.9,-1.0,15.9,0.1,2.3,111
2010-03-22 21:45:10,14.8,-0.1,14.9,0.0,2.1,112
2010-03-22 21:50:10,15.0,0.0,15.0,0.0,1.9,111
2010-03-22 21:55:10,16.5,-6.9,23.5,0.1,2.3,111
2010-03-22 22:00:10,18.6,-8.1,26.7,0.1,2.4,112
2010-03-22 22:05:10,18.9,-8.4,27.3,0.1,2.3,112
2010-03-22 22:10:10,19.0,-8.2,27.2,0.1,2.3,111
2010-03-22 22:15:10,19.1,-9.0,28.1,0.1,2.3,112
2010-03-22 22:20:10,19.1,-11.0,30.1,0.1,2.3,112
2010-03-22 22:25:10,19.1,-18.2,37.3,0.1,2.3,111
2010-03-22 22:30:10,19.0,-19.1,38.1,0.1,2.3,112
2010-03-22 22:35:10,18.8,-24.2,43.1,0.1,2.3,112
2010-03-22 22:40:10,18.5,-25.1,43.6,0.1,2.6,111
2010-03-22 22:45:10,18.5,-25.1,43.6,0.1,2.6,112
2010-03-22 22:50:10,18.6,-24.8,43.3,0.1,2.6,112
2010-03-22 22:55:10,18.5,-24.9,43.4,0.1,2.6,111
2010-03-22 23:00:10,18.4,-25.1,43.4,0.1,2.5,112
2010-03-22 23:05:10,18.4,-24.9,43.4,0.1,2.5,111
2010-03-22 23:10:10,18.5,-24.9,43.5,0.1,2.6,112
2010-03-22 23:15:10,18.5,-25.1,43.6,0.1,2.5,111
2010-03-22 23:20:10,18.4,-25.1,43.4,0.1,2.4,112
2010-03-22 23:25:10,18.3,-25.2,43.4,0.1,2.4,112
2010-03-22 23:30:10,18.2,-25.1,43.3,0.0,2.3,112
2010-03-22 23:35:10,18.2,-25.0,43.2,0.0,2.3,112
2010-03-22 23:40:10,18.3,-25.0,43.2,0.0,2.3,112
2010-03-22 23:45:10,18.3,-24.8,43.1,0.0,2.3,111
2010-03-22 23:50:10,18.2,-24.8,43.1,0.0,2.3,112
2010-03-22 23:55:10,18.2,-24.5,42.7,0.0,2.2,112
